| time (UTC) | temp F | wind direction | speed knots | gust knots | rain 1hr in | rain 24hr in | rain mn in | humidity % | barometer mb |
| 20260505153218 | 52 | 359 | 0.9 | 0.0 | 0.00 | 0.00 | 0.00 | 51 | 1015.0 |
| 20260505152215 | 52 | 359 | 0.9 | 0.0 | 0.00 | 0.00 | 0.00 | 52 | 1015.0 |
| 20260505151213 | 52 | 293 | 1.7 | 0.0 | 0.00 | 0.00 | 0.00 | 54 | 1014.9 |
| 20260505150211 | 51 | 285 | 0.9 | 0.0 | 0.00 | 0.00 | 0.00 | 55 | 1014.8 |
| 20260505140239 | 49 | 316 | 0.0 | 0.0 | 0.00 | 0.00 | 0.00 | 64 | 1014.4 |
| 20260505140153 | 49 | 316 | 0.0 | 0.0 | 0.00 | 0.00 | 0.00 | 64 | 1014.4 |
| 20260505130134 | 47 | 312 | 0.9 | 0.0 | 0.00 | 0.00 | 0.00 | 65 | 1013.7 |
| 20260505124128 | 45 | 301 | 1.7 | 0.0 | 0.00 | 0.00 | 0.00 | 69 | 1013.5 |
| 20260505123124 | 46 | 317 | 0.0 | 0.0 | 0.00 | 0.00 | 0.00 | 70 | 1013.5 |
| 20260505122122 | 45 | 326 | 0.9 | 0.0 | 0.00 | 0.00 | 0.00 | 71 | 1013.5 |
| 20260505121119 | 45 | 4 | 0.9 | 0.0 | 0.00 | 0.00 | 0.00 | 71 | 1013.4 |
| 20260505120116 | 45 | 14 | 0.0 | 0.0 | 0.00 | 0.00 | 0.00 | 72 | 1013.4 |
| 20260505115114 | 45 | 315 | 0.0 | 0.0 | 0.00 | 0.00 | 0.00 | 71 | 1013.4 |
| 20260505114111 | 46 | 335 | 1.7 | 0.0 | 0.00 | 0.00 | 0.00 | 70 | 1013.4 |
| 20260505113107 | 46 | 316 | 2.6 | 0.0 | 0.00 | 0.00 | 0.00 | 70 | 1013.4 |
| 20260505112104 | 45 | 321 | 0.0 | 0.0 | 0.00 | 0.00 | 0.00 | 71 | 1013.4 |
| 20260505111102 | 46 | 331 | 0.9 | 0.0 | 0.00 | 0.00 | 0.00 | 69 | 1013.3 |
| 20260505102130 | 47 | 324 | 4.3 | 0.0 | 0.00 | 0.00 | 0.00 | 66 | 1013.2 |
| 20260505102046 | 47 | 324 | 4.3 | 0.0 | 0.00 | 0.00 | 0.00 | 66 | 1013.2 |
| 20260505101044 | 47 | 316 | 4.3 | 0.0 | 0.00 | 0.00 | 0.00 | 66 | 1013.1 |
| 20260505100040 | 47 | 10 | 3.5 | 0.0 | 0.00 | 0.00 | 0.00 | 66 | 1013.0 |
| 20260505095039 | 47 | 326 | 0.9 | 0.0 | 0.00 | 0.00 | 0.00 | 65 | 1013.0 |
| 20260505094035 | 47 | 342 | 4.3 | 0.0 | 0.00 | 0.00 | 0.00 | 65 | 1013.0 |
| 20260505093031 | 47 | 324 | 0.0 | 0.0 | 0.00 | 0.00 | 0.00 | 65 | 1013.1 |
| 20260505092029 | 48 | 307 | 0.0 | 0.0 | 0.00 | 0.00 | 0.00 | 64 | 1013.1 |
| 20260505091026 | 48 | 300 | 0.0 | 0.0 | 0.00 | 0.00 | 0.00 | 63 | 1013.1 |
| 20260505090023 | 48 | 332 | 0.0 | 0.0 | 0.00 | 0.00 | 0.00 | 63 | 1013.1 |
| 20260505085021 | 49 | 320 | 0.0 | 0.0 | 0.00 | 0.00 | 0.00 | 62 | 1013.1 |
| 20260505084017 | 49 | 305 | 0.9 | 0.0 | 0.00 | 0.00 | 0.00 | 62 | 1013.3 |
| 20260505082010 | 48 | 318 | 3.5 | 0.0 | 0.00 | 0.00 | 0.00 | 62 | 1013.2 |
| 20260505081007 | 49 | 325 | 3.5 | 0.0 | 0.00 | 0.00 | 0.00 | 61 | 1013.4 |
| 20260505080004 | 50 | 316 | 3.5 | 0.0 | 0.00 | 0.00 | 0.00 | 59 | 1013.2 |
| 20260505075001 | 50 | 297 | 0.0 | 0.0 | 0.00 | 0.00 | 0.00 | 59 | 1013.1 |
| 20260505073959 | 50 | 318 | 0.0 | 0.0 | 0.00 | 0.00 | 0.00 | 59 | 1013.3 |
| 20260505072955 | 50 | 312 | 0.9 | 0.0 | 0.00 | 0.00 | 0.00 | 58 | 1013.2 |
| 20260505071952 | 49 | 332 | 0.9 | 0.0 | 0.00 | 0.00 | 0.00 | 60 | 1013.1 |
| 20260505070950 | 50 | 314 | 3.5 | 0.0 | 0.00 | 0.00 | 0.00 | 59 | 1013.1 |
| 20260505065947 | 49 | 322 | 1.7 | 0.0 | 0.00 | 0.00 | 0.00 | 59 | 1013.1 |
| 20260505064944 | 50 | 320 | 2.6 | 0.0 | 0.00 | 0.00 | 0.00 | 58 | 1013.1 |
| 20260505063941 | 50 | 308 | 2.6 | 0.0 | 0.00 | 0.00 | 0.00 | 58 | 1013.1 |
| 20260505062937 | 50 | 313 | 0.0 | 0.0 | 0.00 | 0.00 | 0.00 | 60 | 1013.1 |
| 20260505061934 | 50 | 327 | 0.9 | 0.0 | 0.00 | 0.00 | 0.00 | 60 | 1013.1 |
| 20260505060931 | 50 | 335 | 4.3 | 0.0 | 0.00 | 0.00 | 0.00 | 61 | 1013.1 |
| 20260505055928 | 50 | 336 | 3.5 | 0.0 | 0.00 | 0.00 | 0.00 | 61 | 1013.1 |
| 20260505054927 | 50 | 316 | 6.1 | 0.0 | 0.00 | 0.00 | 0.00 | 60 | 1013.0 |
| 20260505053923 | 50 | 293 | 5.2 | 0.0 | 0.00 | 0.00 | 0.00 | 62 | 1013.0 |
| 20260505052919 | 50 | 322 | 0.9 | 0.0 | 0.00 | 0.00 | 0.00 | 62 | 1013.1 |
| 20260505051916 | 49 | 306 | 0.9 | 0.0 | 0.00 | 0.00 | 0.00 | 63 | 1013.0 |
| 20260505050914 | 50 | 341 | 4.3 | 0.0 | 0.00 | 0.00 | 0.00 | 62 | 1013.2 |
| 20260505040855 | 51 | 326 | 6.1 | 0.0 | 0.00 | 0.00 | 0.00 | 58 | 1013.0 |
| 20260505035853 | 52 | 322 | 6.1 | 0.0 | 0.00 | 0.00 | 0.00 | 57 | 1013.0 |
| 20260505034851 | 52 | 312 | 7.0 | 0.0 | 0.00 | 0.00 | 0.00 | 56 | 1012.8 |
| 20260505033846 | 53 | 326 | 8.7 | 0.0 | 0.00 | 0.00 | 0.00 | 54 | 1012.7 |
| 20260505032842 | 53 | 308 | 8.7 | 0.0 | 0.00 | 0.00 | 0.00 | 53 | 1012.4 |
| 20260505031840 | 54 | 303 | 8.7 | 0.0 | 0.00 | 0.00 | 0.00 | 52 | 1012.3 |
| 20260505030837 | 53 | 322 | 7.8 | 0.0 | 0.00 | 0.00 | 0.00 | 52 | 1012.1 |
| 20260505025835 | 53 | 35 | 4.3 | 0.0 | 0.00 | 0.00 | 0.00 | 53 | 1012.1 |
| 20260505024832 | 53 | 322 | 0.0 | 0.0 | 0.00 | 0.00 | 0.00 | 52 | 1012.0 |
| 20260505023908 | 54 | 328 | 0.0 | 0.0 | 0.00 | 0.00 | 0.00 | 51 | 1012.0 |
| 20260505023829 | 54 | 328 | 0.0 | 0.0 | 0.00 | 0.00 | 0.00 | 51 | 1012.0 |
| 20260505022824 | 55 | 316 | 1.7 | 0.0 | 0.00 | 0.00 | 0.00 | 50 | 1011.8 |
| 20260505021822 | 55 | 318 | 0.0 | 0.0 | 0.00 | 0.00 | 0.00 | 48 | 1011.7 |
| 20260505020820 | 56 | 328 | 0.0 | 0.0 | 0.00 | 0.00 | 0.00 | 47 | 1011.6 |
| 20260505015817 | 57 | 324 | 2.6 | 0.0 | 0.00 | 0.00 | 0.00 | 46 | 1011.6 |
| 20260505014814 | 58 | 345 | 4.3 | 0.0 | 0.00 | 0.00 | 0.00 | 44 | 1011.6 |
| 20260505013811 | 58 | 327 | 3.5 | 0.0 | 0.00 | 0.00 | 0.00 | 43 | 1011.6 |
| 20260505012807 | 58 | 310 | 1.7 | 0.0 | 0.00 | 0.00 | 0.00 | 43 | 1011.6 |
| 20260505011845 | 58 | 330 | 2.6 | 0.0 | 0.00 | 0.00 | 0.00 | 39 | 1011.7 |
| 20260505011804 | 58 | 330 | 2.6 | 0.0 | 0.00 | 0.00 | 0.00 | 39 | 1011.7 |
| 20260505010801 | 59 | 320 | 6.1 | 0.0 | 0.00 | 0.00 | 0.00 | 39 | 1011.6 |
| 20260505005759 | 60 | 319 | 7.0 | 0.0 | 0.00 | 0.00 | 0.00 | 39 | 1011.6 |
| 20260505004756 | 60 | 326 | 5.2 | 0.0 | 0.00 | 0.00 | 0.00 | 41 | 1011.6 |
| 20260505003753 | 60 | 354 | 7.0 | 0.0 | 0.00 | 0.00 | 0.00 | 40 | 1011.6 |
| 20260505002749 | 60 | 10 | 7.0 | 0.0 | 0.00 | 0.00 | 0.00 | 41 | 1011.6 |
| 20260505001746 | 60 | 349 | 5.2 | 0.0 | 0.00 | 0.00 | 0.00 | 44 | 1011.6 |
| 20260505000743 | 59 | 337 | 7.8 | 0.0 | 0.00 | 0.00 | 0.00 | 45 | 1011.6 |
| 20260504235817 | 59 | 316 | 7.8 | 0.0 | 0.00 | 0.00 | 0.00 | 44 | 1011.7 |
| 20260504235741 | 59 | 316 | 7.8 | 0.0 | 0.00 | 0.00 | 0.00 | 44 | 1011.7 |
| 20260504234738 | 61 | 341 | 7.8 | 0.0 | 0.00 | 0.00 | 0.00 | 42 | 1011.6 |
| 20260504233735 | 61 | 305 | 5.2 | 0.0 | 0.00 | 0.00 | 0.00 | 42 | 1011.6 |
| 20260504232731 | 61 | 343 | 7.8 | 0.0 | 0.00 | 0.00 | 0.00 | 41 | 1011.6 |
| 20260504231729 | 60 | 326 | 7.8 | 0.0 | 0.00 | 0.00 | 0.00 | 41 | 1011.7 |
| 20260504230726 | 60 | 328 | 8.7 | 0.0 | 0.00 | 0.00 | 0.00 | 40 | 1011.8 |
| 20260504225723 | 62 | 345 | 1.7 | 0.0 | 0.00 | 0.00 | 0.00 | 40 | 1011.8 |
| 20260504224720 | 63 | 329 | 5.2 | 0.0 | 0.00 | 0.00 | 0.00 | 41 | 1011.9 |
| 20260504223717 | 61 | 354 | 2.6 | 0.0 | 0.00 | 0.00 | 0.00 | 40 | 1012.1 |
| 20260504222713 | 63 | 322 | 2.6 | 0.0 | 0.00 | 0.00 | 0.00 | 39 | 1012.1 |
| 20260504221710 | 62 | 303 | 9.6 | 0.0 | 0.00 | 0.00 | 0.00 | 38 | 1012.3 |
| 20260504220707 | 63 | 318 | 7.0 | 0.0 | 0.00 | 0.00 | 0.00 | 37 | 1012.4 |
| 20260504215704 | 62 | 299 | 3.5 | 0.0 | 0.00 | 0.00 | 0.00 | 36 | 1012.6 |
| 20260504214701 | 62 | 22 | 7.8 | 0.0 | 0.00 | 0.00 | 0.00 | 38 | 1012.6 |
| 20260504213657 | 62 | 302 | 7.8 | 0.0 | 0.00 | 0.00 | 0.00 | 37 | 1012.6 |
| 20260504212654 | 62 | 347 | 5.2 | 0.0 | 0.00 | 0.00 | 0.00 | 36 | 1012.7 |
| 20260504211755 | 62 | 283 | 7.0 | 0.0 | 0.00 | 0.00 | 0.00 | 35 | 1012.8 |
| 20260504211651 | 62 | 283 | 7.0 | 0.0 | 0.00 | 0.00 | 0.00 | 35 | 1012.8 |
| 20260504210725 | 62 | 268 | 4.3 | 0.0 | 0.00 | 0.00 | 0.00 | 36 | 1012.8 |
| 20260504210649 | 62 | 268 | 4.3 | 0.0 | 0.00 | 0.00 | 0.00 | 36 | 1012.8 |
| 20260504205646 | 62 | 305 | 5.2 | 0.0 | 0.00 | 0.00 | 0.00 | 36 | 1012.9 |
| 20260504204643 | 61 | 335 | 7.0 | 0.0 | 0.00 | 0.00 | 0.00 | 33 | 1012.9 |
| 20260504203640 | 62 | 347 | 4.3 | 0.0 | 0.00 | 0.00 | 0.00 | 30 | 1012.9 |
| 20260504202637 | 61 | 328 | 6.1 | 0.0 | 0.00 | 0.00 | 0.00 | 28 | 1013.0 |
| 20260504201634 | 61 | 330 | 7.8 | 0.0 | 0.00 | 0.00 | 0.00 | 26 | 1012.8 |
| 20260504200632 | 62 | 354 | 3.5 | 0.0 | 0.00 | 0.00 | 0.00 | 30 | 1012.9 |
| 20260504195629 | 61 | 318 | 5.2 | 0.0 | 0.00 | 0.00 | 0.00 | 34 | 1013.0 |
| 20260504193621 | 61 | 354 | 7.0 | 0.0 | 0.00 | 0.00 | 0.00 | 32 | 1013.1 |
| 20260504192618 | 61 | 4 | 7.0 | 0.0 | 0.00 | 0.00 | 0.00 | 37 | 1013.1 |
| 20260504191615 | 60 | 335 | 7.8 | 0.0 | 0.00 | 0.00 | 0.00 | 37 | 1013.2 |
| 20260504190614 | 60 | 299 | 4.3 | 0.0 | 0.00 | 0.00 | 0.00 | 36 | 1013.2 |
| 20260504185611 | 60 | 337 | 2.6 | 0.0 | 0.00 | 0.00 | 0.00 | 36 | 1013.3 |
| 20260504184608 | 60 | 21 | 7.0 | 0.0 | 0.00 | 0.00 | 0.00 | 39 | 1013.2 |
| 20260504183604 | 60 | 15 | 2.6 | 0.0 | 0.00 | 0.00 | 0.00 | 40 | 1013.2 |
| 20260504182601 | 60 | 316 | 1.7 | 0.0 | 0.00 | 0.00 | 0.00 | 38 | 1013.3 |
| 20260504181558 | 59 | 12 | 3.5 | 0.0 | 0.00 | 0.00 | 0.00 | 38 | 1013.3 |
| 20260504180555 | 59 | 331 | 4.3 | 0.0 | 0.00 | 0.00 | 0.00 | 39 | 1013.5 |
| 20260504175553 | 59 | 328 | 3.5 | 0.0 | 0.00 | 0.00 | 0.00 | 41 | 1013.4 |
| 20260504174550 | 59 | 354 | 3.5 | 0.0 | 0.00 | 0.00 | 0.00 | 42 | 1013.4 |
| 20260504173545 | 58 | 324 | 4.3 | 0.0 | 0.00 | 0.00 | 0.00 | 44 | 1013.4 |
| 20260504172543 | 58 | 330 | 6.1 | 0.0 | 0.00 | 0.00 | 0.00 | 43 | 1013.4 |
| 20260504170538 | 58 | 339 | 4.3 | 0.0 | 0.00 | 0.00 | 0.00 | 43 | 1013.3 |